THY6805 LTAC-LTCV

Flight info

Callsign THY6805
Flight time 1h 20m
Altitude 37000
Route LTAC/21R N0468F370 GOBI1D GOBIT UL614 MARTI UG8 SORAR G8 SRT T306 ABDIK ABDI1A LTCV/11
Aircraft B738/M-CDT/C

Departure

Time 2026-05-04 10:54
Airport Esenboğa International Airport (LTAC)

Arrival

Time 2026-05-04 12:15
Airport Şırnak Şerafettin Elçi Airport (LTCV)
Time Latitude Longitude Altitude Speed Heading
2026-05-04 10:37 40.12914 33.00329 3125 ft 0 kts 126°
2026-05-04 10:49 40.12972 33.00324 3125 ft 9 kts 351°
2026-05-04 10:49 40.13056 33.00321 3122 ft 15 kts
2026-05-04 10:50 40.13172 33.00342 3123 ft 19 kts
2026-05-04 10:51 40.14102 33.00986 3135 ft 22 kts 288°
2026-05-04 10:52 40.14039 33.00831 3134 ft 22 kts 217°
2026-05-04 10:52 40.13747 33.00552 3131 ft 84 kts 216°
2026-05-04 10:52 40.13112 32.99946 3124 ft 140 kts 216°
2026-05-04 10:54 40.05927 32.92977 6135 ft 198 kts 217°
2026-05-04 10:54 40.04818 32.91887 6520 ft 203 kts 217°
2026-05-04 10:56 39.94910 32.93084 9227 ft 268 kts 145°
2026-05-04 10:56 39.93338 32.94518 9576 ft 283 kts 145°
2026-05-04 10:56 39.91702 32.95994 9957 ft 286 kts 146°
2026-05-04 10:57 39.90002 32.97387 10329 ft 292 kts 159°
2026-05-04 10:57 39.87979 32.97875 10528 ft 308 kts 181°
2026-05-04 10:57 39.85766 32.97715 10728 ft 330 kts 183°
2026-05-04 10:57 39.83420 32.98057 10860 ft 353 kts 160°
2026-05-04 10:58 39.81307 32.99771 11108 ft 369 kts 134°
2026-05-04 10:58 39.79951 33.02627 11610 ft 376 kts 108°
2026-05-04 10:58 39.79673 33.05982 12324 ft 376 kts 83°
2026-05-04 10:58 39.80210 33.09275 12976 ft 379 kts 75°
2026-05-04 10:59 39.80913 33.12607 13527 ft 384 kts 74°
2026-05-04 10:59 39.81629 33.15967 14116 ft 387 kts 75°
2026-05-04 10:59 39.82320 33.19378 14681 ft 391 kts 75°
2026-05-04 10:59 39.82980 33.22814 15277 ft 394 kts 76°
2026-05-04 11:00 39.83622 33.26292 15896 ft 395 kts 77°
2026-05-04 11:01 39.87430 33.51470 19540 ft 418 kts 95°
2026-05-04 11:02 39.86955 33.55217 20006 ft 421 kts 105°
2026-05-04 11:02 39.86017 33.58824 20511 ft 422 kts 110°
2026-05-04 11:05 39.71201 34.11251 25562 ft 458 kts 110°
2026-05-04 11:06 39.70093 34.15140 25848 ft 460 kts 110°
2026-05-04 11:06 39.68980 34.19042 26147 ft 462 kts 110°
2026-05-04 11:06 39.67876 34.22902 26406 ft 464 kts 110°
2026-05-04 11:06 39.66750 34.26837 26673 ft 466 kts 110°
2026-05-04 11:08 39.58732 34.54735 28375 ft 478 kts 110°
2026-05-04 11:10 39.50592 34.82843 30508 ft 473 kts 110°
2026-05-04 11:12 39.42475 35.10576 32383 ft 471 kts 111°
2026-05-04 11:12 39.41310 35.14534 32607 ft 471 kts 111°
2026-05-04 11:12 39.40140 35.18500 32869 ft 470 kts 111°
2026-05-04 11:12 39.38983 35.22460 33095 ft 470 kts 110°
2026-05-04 11:13 39.37837 35.26417 33259 ft 472 kts 110°
2026-05-04 11:13 39.36686 35.30401 33474 ft 472 kts 110°
2026-05-04 11:13 39.35541 35.34362 33823 ft 468 kts 110°
2026-05-04 11:13 39.34402 35.38295 34136 ft 466 kts 110°
2026-05-04 11:14 39.34034 35.39563 34211 ft 466 kts 110°
2026-05-04 11:14 39.31749 35.47418 34493 ft 469 kts 110°
2026-05-04 11:16 39.22909 35.77554 35756 ft 471 kts 111°
2026-05-04 11:16 39.21747 35.81490 36071 ft 467 kts 111°
2026-05-04 11:16 39.20593 35.85395 36361 ft 464 kts 111°
2026-05-04 11:17 39.19440 35.89290 36507 ft 465 kts 111°
2026-05-04 11:17 39.18300 35.93138 36621 ft 465 kts 111°
2026-05-04 11:19 39.13017 36.21357 36999 ft 466 kts 99°
2026-05-04 11:19 39.12516 36.25493 37001 ft 465 kts 99°
2026-05-04 11:19 39.11487 36.33716 36996 ft 465 kts 99°
2026-05-04 11:20 39.10432 36.41924 37003 ft 465 kts 99°
2026-05-04 11:20 39.09374 36.50083 37004 ft 465 kts 99°
2026-05-04 11:22 39.05059 36.82947 37001 ft 467 kts 99°
2026-05-04 11:23 39.03961 36.91192 37003 ft 467 kts 99°
2026-05-04 11:25 39.00077 37.20009 37000 ft 469 kts 100°
2026-05-04 11:25 38.98949 37.28269 37001 ft 469 kts 100°
2026-05-04 11:27 38.93811 37.65364 36998 ft 467 kts 100°
2026-05-04 11:28 38.92665 37.73515 37001 ft 466 kts 100°
2026-05-04 11:28 38.91508 37.81699 37000 ft 466 kts 100°
2026-05-04 11:29 38.90347 37.89873 37007 ft 465 kts 100°
2026-05-04 11:29 38.89179 37.98047 36999 ft 465 kts 100°
2026-05-04 11:33 38.80863 38.55097 36998 ft 464 kts 101°
2026-05-04 11:33 38.79652 38.63237 37000 ft 464 kts 101°
2026-05-04 11:34 38.78447 38.71300 36994 ft 463 kts 101°
2026-05-04 11:34 38.77230 38.79403 36997 ft 463 kts 101°
2026-05-04 11:35 38.76007 38.87510 37000 ft 462 kts 101°
2026-05-04 11:35 38.74792 38.95602 37002 ft 462 kts 101°
2026-05-04 11:36 38.73596 39.03692 37006 ft 462 kts 101°
2026-05-04 11:36 38.72391 39.11790 37000 ft 463 kts 101°
2026-05-04 11:37 38.71185 39.19842 36996 ft 463 kts 101°
2026-05-04 11:37 38.69371 39.27742 37014 ft 463 kts 111°
2026-05-04 11:38 38.67057 39.35430 37002 ft 464 kts 111°
2026-05-04 11:38 38.64770 39.43155 37006 ft 464 kts 110°
2026-05-04 11:39 38.62884 39.49633 36998 ft 464 kts 110°
2026-05-04 11:40 38.56174 39.72895 36252 ft 464 kts 110°
2026-05-04 11:41 38.55064 39.76733 35872 ft 457 kts 110°
2026-05-04 11:41 38.53969 39.80513 35488 ft 451 kts 110°
2026-05-04 11:41 38.52882 39.84259 35114 ft 446 kts 110°
2026-05-04 11:41 38.51808 39.87956 34742 ft 443 kts 110°
2026-05-04 11:42 38.50739 39.91627 34368 ft 441 kts 110°
2026-05-04 11:42 38.49658 39.95335 34023 ft 452 kts 110°
2026-05-04 11:42 38.48545 39.99151 33669 ft 464 kts 110°
2026-05-04 11:42 38.47407 40.03044 33309 ft 471 kts 110°
2026-05-04 11:43 38.46256 40.06977 32930 ft 473 kts 110°
2026-05-04 11:43 38.45108 40.10892 32551 ft 470 kts 110°
2026-05-04 11:43 38.43965 40.14787 32178 ft 467 kts 110°
2026-05-04 11:43 38.42823 40.18673 31808 ft 469 kts 110°
2026-05-04 11:44 38.41690 40.22521 31446 ft 471 kts 110°
2026-05-04 11:44 38.40537 40.26433 31072 ft 471 kts 110°
2026-05-04 11:44 38.39389 40.30321 30691 ft 467 kts 110°
2026-05-04 11:44 38.38248 40.34180 30314 ft 464 kts 110°
2026-05-04 11:45 38.37113 40.38014 29940 ft 461 kts 111°
2026-05-04 11:45 38.35985 40.41821 29548 ft 458 kts 111°
2026-05-04 11:45 38.34860 40.45610 29180 ft 455 kts 111°
2026-05-04 11:45 38.33745 40.49361 28812 ft 452 kts 111°
2026-05-04 11:46 38.32634 40.53094 28439 ft 450 kts 111°
2026-05-04 11:46 38.31527 40.56808 28062 ft 447 kts 111°
2026-05-04 11:46 38.30423 40.60505 27689 ft 445 kts 111°
2026-05-04 11:46 38.29326 40.64176 27314 ft 443 kts 111°
2026-05-04 11:47 38.28230 40.67838 26940 ft 441 kts 111°
2026-05-04 11:47 38.27137 40.71485 26565 ft 439 kts 111°
2026-05-04 11:47 38.26052 40.75105 26194 ft 437 kts 111°
2026-05-04 11:47 38.24968 40.78714 25829 ft 435 kts 111°
2026-05-04 11:48 38.23889 40.82295 25443 ft 432 kts 111°
2026-05-04 11:48 38.22800 40.85843 25069 ft 430 kts 111°
2026-05-04 11:48 38.21719 40.89321 24696 ft 427 kts 111°
2026-05-04 11:48 38.20625 40.92823 24319 ft 425 kts 111°
2026-05-04 11:49 38.19537 40.96309 23940 ft 422 kts 111°
2026-05-04 11:49 38.18459 40.99766 23570 ft 420 kts 111°
2026-05-04 11:49 38.17387 41.03207 23199 ft 417 kts 111°
2026-05-04 11:49 38.16322 41.06625 22824 ft 415 kts 111°
2026-05-04 11:50 38.15260 41.10025 22451 ft 413 kts 111°
2026-05-04 11:50 38.14205 41.13402 22077 ft 410 kts 111°
2026-05-04 11:50 38.13162 41.16768 21694 ft 408 kts 111°
2026-05-04 11:50 38.12133 41.20114 21328 ft 405 kts 111°
2026-05-04 11:51 38.11113 41.23431 20951 ft 402 kts 111°
2026-05-04 11:51 38.10097 41.26735 20580 ft 399 kts 111°
2026-05-04 11:51 38.09094 41.29991 20200 ft 396 kts 111°
2026-05-04 11:51 38.08102 41.33203 19830 ft 394 kts 111°
2026-05-04 11:52 38.07106 41.36425 19454 ft 391 kts 111°
2026-05-04 11:52 38.06113 41.39633 19076 ft 389 kts 111°
2026-05-04 11:52 38.05126 41.42815 18700 ft 387 kts 111°
2026-05-04 11:52 38.04145 41.45978 18326 ft 385 kts 111°
2026-05-04 11:53 38.03167 41.49125 17957 ft 383 kts 111°
2026-05-04 11:53 38.02192 41.52260 17581 ft 381 kts 111°
2026-05-04 11:53 38.01224 41.55380 17202 ft 379 kts 111°
2026-05-04 11:53 38.00269 41.58486 16831 ft 377 kts 111°
2026-05-04 11:55 37.93768 41.79592 14708 ft 343 kts 111°
2026-05-04 11:55 37.92909 41.82364 14570 ft 334 kts 111°
2026-05-04 11:56 37.92063 41.85068 14432 ft 324 kts 114°
2026-05-04 11:56 37.90802 41.87362 14271 ft 315 kts 138°
2026-05-04 11:56 37.89012 41.88857 14143 ft 305 kts 159°
2026-05-04 11:56 37.87019 41.89636 14032 ft 296 kts 166°
2026-05-04 11:57 37.85073 41.90261 13898 ft 289 kts 166°
2026-05-04 11:57 37.83131 41.90867 13764 ft 286 kts 166°
2026-05-04 11:57 37.81210 41.91471 13639 ft 284 kts 166°
2026-05-04 11:57 37.79298 41.92082 13485 ft 282 kts 166°
2026-05-04 11:58 37.77399 41.92694 13330 ft 281 kts 166°
2026-05-04 11:58 37.75507 41.93309 13161 ft 281 kts 166°
2026-05-04 11:58 37.73613 41.93927 12972 ft 281 kts 166°
2026-05-04 11:58 37.71715 41.94547 12789 ft 282 kts 166°
2026-05-04 11:59 37.69818 41.95166 12602 ft 282 kts 166°
2026-05-04 11:59 37.67917 41.95789 12419 ft 282 kts 166°
2026-05-04 11:59 37.66017 41.96419 12232 ft 282 kts 166°
2026-05-04 11:59 37.64115 41.97050 12043 ft 283 kts 166°
2026-05-04 12:00 37.62213 41.97682 11863 ft 283 kts 166°
2026-05-04 12:00 37.60317 41.98311 11681 ft 281 kts 166°
2026-05-04 12:00 37.58438 41.98934 11482 ft 276 kts 166°
2026-05-04 12:00 37.56612 41.99539 11291 ft 272 kts 166°
2026-05-04 12:01 37.54798 42.00139 11116 ft 267 kts 166°
2026-05-04 12:01 37.53022 42.00727 10946 ft 262 kts 166°
2026-05-04 12:02 37.43065 42.03595 9691 ft 235 kts 191°
2026-05-04 12:03 37.41546 42.02928 9476 ft 231 kts 210°
2026-05-04 12:03 37.40304 42.01684 9239 ft 227 kts 230°
2026-05-04 12:03 37.39501 42.00018 8998 ft 220 kts 250°
2026-05-04 12:03 37.39177 41.98175 8760 ft 213 kts 265°
2026-05-04 12:04 37.39244 41.96349 8515 ft 206 kts 283°
2026-05-04 12:04 37.39927 41.94820 8313 ft 199 kts 308°
2026-05-04 12:04 37.40741 41.93418 8131 ft 199 kts 303°
2026-05-04 12:04 37.41487 41.91948 7928 ft 200 kts 301°
2026-05-04 12:05 37.42182 41.90455 7725 ft 201 kts 299°
2026-05-04 12:05 37.42831 41.88865 7508 ft 203 kts 296°
2026-05-04 12:05 37.43376 41.87255 7286 ft 204 kts 281°
2026-05-04 12:05 37.43227 41.85506 7080 ft 204 kts 246°
2026-05-04 12:06 37.42441 41.84036 6881 ft 203 kts 231°
2026-05-04 12:06 37.41538 41.82664 6674 ft 204 kts 231°
2026-05-04 12:06 37.40650 41.81298 6490 ft 199 kts 233°
2026-05-04 12:06 37.39970 41.79815 6299 ft 193 kts 244°
2026-05-04 12:07 37.39636 41.78238 6074 ft 185 kts 273°
2026-05-04 12:07 37.39743 41.76678 5939 ft 174 kts 275°
2026-05-04 12:07 37.39944 41.75263 5818 ft 158 kts 298°
2026-05-04 12:07 37.40815 41.74551 5611 ft 156 kts 357°
2026-05-04 12:08 37.41879 41.74855 5487 ft 160 kts 21°
2026-05-04 12:08 37.42771 41.75669 5309 ft 157 kts 41°
2026-05-04 12:08 37.43602 41.76581 5145 ft 159 kts 40°
2026-05-04 12:08 37.44437 41.77479 5059 ft 158 kts 40°
2026-05-04 12:09 37.45080 41.78589 4933 ft 158 kts 67°
2026-05-04 12:09 37.45392 41.79886 4835 ft 158 kts 82°
2026-05-04 12:09 37.45450 41.81276 4722 ft 159 kts 94°
2026-05-04 12:09 37.45183 41.82609 4598 ft 157 kts 115°
2026-05-04 12:10 37.44722 41.83856 4489 ft 158 kts 114°
2026-05-04 12:10 37.44271 41.85109 4337 ft 156 kts 115°
2026-05-04 12:10 37.43817 41.86356 4205 ft 158 kts 115°
2026-05-04 12:10 37.43358 41.87600 4033 ft 155 kts 115°
2026-05-04 12:11 37.42903 41.88829 3887 ft 155 kts 115°
2026-05-04 12:11 37.42440 41.90068 3736 ft 156 kts 115°
2026-05-04 12:11 37.41982 41.91298 3584 ft 155 kts 115°
2026-05-04 12:11 37.41523 41.92521 3452 ft 154 kts 115°
2026-05-04 12:12 37.41069 41.93733 3258 ft 152 kts 115°
2026-05-04 12:12 37.40615 41.94934 3086 ft 152 kts 116°
2026-05-04 12:12 37.40158 41.96137 2907 ft 152 kts 116°
2026-05-04 12:12 37.39703 41.97333 2744 ft 151 kts 116°
2026-05-04 12:13 37.39250 41.98524 2584 ft 151 kts 116°
2026-05-04 12:14 37.36165 42.06575 2048 ft 106 kts 117°
2026-05-04 12:15 37.35995 42.07013 2051 ft 10 kts 114°
2026-05-04 12:15 37.35964 42.07092 2049 ft 10 kts 113°
2026-05-04 12:15 37.35942 42.07168 2049 ft 5 kts 82°
2026-05-04 12:15 37.35966 42.07182 2050 ft 3 kts 342°
2026-05-04 12:16 37.35980 42.07153 2050 ft 7 kts 295°
2026-05-04 12:16 37.36008 42.07069 2049 ft 14 kts 293°
2026-05-04 12:16 37.36059 42.06922 2045 ft 22 kts 294°
2026-05-04 12:16 37.36126 42.06730 2048 ft 25 kts 293°
2026-05-04 12:17 37.36192 42.06534 2047 ft 23 kts 292°
2026-05-04 12:17 37.36262 42.06355 2049 ft 23 kts 299°
2026-05-04 12:17 37.36337 42.06184 2051 ft 22 kts 299°
2026-05-04 12:17 37.36375 42.06050 2052 ft 13 kts 271°
2026-05-04 12:18 37.36325 42.05963 2052 ft 13 kts 212°
2026-05-04 12:18 37.36251 42.05904 2053 ft 13 kts 212°
2026-05-04 12:18 37.36178 42.05848 2051 ft 9 kts 211°
2026-05-04 12:18 37.36163 42.05836 2051 ft 0 kts 211°